MIDAS 3 DEB, 25793

Orbit data source: Space-Track

MIDAS 3 DEB, 25793 is space debris in LEO originally from a launch on Wed, 12 Jul 1961 UTC launched from the Air Force Western Test Range (AFWTR). Debris objects in space refer to the collection of defunct objects orbiting the Earth. Examples of debris include non-operational satellites, rocket bodies, and fragments generated from explosions, collisions, or faulty payload assembly.

Loading next visibility...
Identifier
25793, 1961-018F
Orbit
LEO
Country
Flag of USUS
Related business
Manufacturer
Unknown
Mission
Spacecraft
Bus & Motor
Unknown
Mass
Unknown
Launch date (UTC)
1961-07-12 (64 years ago)
Launch vehicle
Unknown
Launch site
Air Force Western Test Range (AFWTR)
Object type
Payload
Rocket body
Debris
Shape & HBR
Unknown
Radar Cross Section
Medium (>0.1 m² and <1 m²)

Expand to show TLE details & history
Last TLE update: 2 days ago

TLE from 2 days ago
0 MIDAS 3 DEB
1 25793U 61018F   25258.25733013  .00000014  00000-0  45874-2 0  9993
2 25793  91.1399 207.1040 0131176  16.8129 343.7036  8.93207062377404
Epoch: 2025-09-15T06:10Z
TLE epoch observation values (Epoch: 2025-09-15T06:10:33.323Z)
Latitude
0.00004°
Longitude
120.00057°
Altitude
3,312.9 km
Speed
6.454 km/s
True Right ascension
13h 48m 24s
True Declination
0° 00' 00"
Sunlit
Object was in daylight at epoch
Visualization orbit readout
Latitude
Unknown
Longitude
Unknown
Altitude
Unknown
Speed
Unknown
Apparent Right ascension
Unknown
Apparent Declination
Unknown
Sunlit
N/A
Visualization observer readout
Local Sidereal Time
06:50:25
Azimuth
Unknown
Elevation
Unknown
Doppler factor
Unknown
Orbital elements
Apogee altitude
3,560.526 km
Perigee altitude
3,303.159 km
Semi-major axis
9,809.98 km
Eccentricity
0.01312
Inclination
91.1399°
RAAN
207.104°
Arg. of periapsis
16.8129°
True anomaly
343.27507°
Mean anomaly
343.7036°
Eccentric anomaly
343.49001°
Mean motion
2.23378 °/min
Orbital period
161.16 mins
BSTAR
0.0045874
Loading maneuver chart data...
Computing Atmospheric mass density...
Loading historical data...
Loading historical data...
Loading historical data...
Loading historical data...
Loading historical data...
Loading historical data...
Loading historical data...
Other satellites on launch #18 in the year 1961 (1961-07-12 UTC)

Documentation

Showing up to 5 results
|